CZ-3B DEB, 40169

Orbit data source: Space-Track

CZ-3B DEB, 40169 is space debris in HEO originally from a launch on Sat, 04 Sep 2010 UTC launched from the Xichang Space Center, China (XSC). Debris objects in space refer to the collection of defunct objects orbiting the Earth. Examples of debris include non-operational satellites, rocket bodies, and fragments generated from explosions, collisions, or faulty payload assembly.

Loading next visibility...
Identifier
40169, 2010-042W
Orbit
HEO
Country
Flag of CNCN / PRC
Related business
Manufacturer
CALT
Mission
Spacecraft
Bus & Motor
Unknown
Mass
Unknown
Launch date (UTC)
2010-09-04 (16 years ago)
Launch vehicle
Unknown
Launch site
Xichang Space Center, China (XSC)
Object type
Payload
Rocket body
Debris
Shape & HBR
Unknown shape, 0.2 m
Radar Cross Section
Medium (>0.1 m² and <1 m²)

Expand to show TLE details & history
Last TLE update: 2 days ago

TLE from 2 days ago
0 CZ-3B DEB
1 40169U 10042W   26171.44383566 -.00000174  00000-0  00000+0 0  9995
2 40169  25.9468 235.7747 7232417  38.8825   7.6284  1.93992488 97861
Epoch: 2026-06-20T10:39Z
TLE epoch observation values (Epoch: 2026-06-20T10:39:07.401Z)
Latitude
25.8028°
Longitude
-93.83395°
Altitude
3,034.851 km
Speed
8.369 km/s
True Right ascension
22h 18m 25s
True Declination
25° 42' 03"
Sunlit
Object was in daylight at epoch
Visualization orbit readout
Latitude
Unknown
Longitude
Unknown
Altitude
Unknown
Speed
Unknown
Apparent Right ascension
Unknown
Apparent Declination
Unknown
Sunlit
N/A
Visualization observer readout
Local Sidereal Time
21:37:44
Azimuth
Unknown
Elevation
Unknown
Doppler factor
Unknown
Orbital elements
Apogee altitude
40,425.668 km
Perigee altitude
1,138.708 km
Semi-major axis
27,160.325 km
Eccentricity
0.72324
Inclination
25.9468°
RAAN
235.7747°
Arg. of periapsis
38.8825°
True anomaly
58.71833°
Mean anomaly
7.6284°
Eccentric anomaly
25.4084°
Mean motion
0.48489 °/min
Orbital period
742.44 mins
BSTAR
0
Loading maneuver chart data...
Computing Atmospheric mass density...
Loading historical data...
Loading historical data...
Loading historical data...
Loading historical data...
Loading historical data...
Loading historical data...
Loading historical data...

Documentation

Showing up to 5 results
|